Starlink 32353

operational
NORAD ID: 61587 Int'l Des: 2024-187 Owner: SPXS Country: US Constellation: starlink
LEOCIRCULAR

About Starlink 32353

Description loading...

Live Position

Loading 3D Globe...

Upcoming Passes

Altitude History

Altitude vs Time

uPlot chart will show altitude changes over time

Two-Line Element Set

1 61587U 24187P 25260.07664875 .00021200 00000-0 72611-3 0 9992
2 61587 53.1578 151.3751 0001405 93.3932 266.7229 15.30189020 52448
Epoch: Sep 17, 2025 • Age: 24 hours

Current Status

Altitude 481.9 km
Velocity 7.62 km/s
Sub-Earth Point -22.48°S, 46.54°W
Launch Date Oct 18, 2024
Age 0.9 years
Type internet

Technical Details

Classification Payload
Mass 730.00 kg
Dry Mass 700.00 kg
Total Mass 730.00 kg
Length 0.30 m
Diameter 4.10 m
Span 29.00 m
Shape Box + pan
Manufacturer SPXS
Bus Type Starlink V2M
Phase Status In Orbit
Owner/State SPXS/US

Large Constellations

Loading constellations...